Time,TemperatureF,DewpointF,PressureIn,WindDirection,WindDirectionDegrees,WindSpeedMPH,WindSpeedGustMPH,Humidity,HourlyPrecipIn,Conditions,Clouds,dailyrainin,SolarRadiationWatts/m^2,SoftwareType,DateUTC
2013-01-28 00:02:00,30.0,29.0,-100.00,ESE,120,3.0,7.0,96,0.00,,,0.00,0.000000,,2013-01-28 06:02:00,
2013-01-28 00:11:00,30.0,29.0,-100.00,ESE,120,3.0,7.0,96,0.00,,,0.00,0.000000,,2013-01-28 06:11:00,
2013-01-28 00:32:00,30.0,29.0,-100.00,SE,130,3.0,6.0,96,0.00,,,0.00,0.000000,,2013-01-28 06:32:00,
2013-01-28 00:42:00,30.0,29.0,-100.00,SE,130,3.0,6.0,96,0.00,,,0.00,0.000000,,2013-01-28 06:42:00,
2013-01-28 00:52:00,30.0,29.0,-100.00,SE,130,3.0,6.0,96,0.00,,,0.00,0.000000,,2013-01-28 06:52:00,
2013-01-28 01:02:00,30.0,29.0,-100.00,SE,130,3.0,6.0,96,0.00,,,0.00,0.000000,,2013-01-28 07:02:00,
2013-01-28 01:11:00,30.0,29.0,-100.00,SE,130,3.0,6.0,96,0.00,,,0.00,0.000000,,2013-01-28 07:11:00,
2013-01-28 01:32:00,31.0,30.0,-100.00,SSE,153,3.0,9.0,96,0.00,,,0.00,0.000000,,2013-01-28 07:32:00,
2013-01-28 01:42:00,31.0,30.0,-100.00,SSE,153,3.0,9.0,96,0.00,,,0.00,0.000000,,2013-01-28 07:42:00,
2013-01-28 01:52:00,31.0,30.0,-100.00,SSE,153,3.0,9.0,96,0.00,,,0.00,0.000000,,2013-01-28 07:52:00,
2013-01-28 02:01:00,31.0,30.0,-100.00,SSE,153,3.0,9.0,96,0.00,,,0.00,0.000000,,2013-01-28 08:01:00,
2013-01-28 02:11:00,31.0,30.0,-100.00,SSE,153,3.0,9.0,96,0.00,,,0.00,0.000000,,2013-01-28 08:11:00,
2013-01-28 02:32:00,31.0,30.0,-100.00,ESE,122,2.0,9.0,96,0.00,,,0.00,0.000000,,2013-01-28 08:32:00,
2013-01-28 02:42:00,31.0,30.0,-100.00,ESE,122,2.0,9.0,96,0.00,,,0.00,0.000000,,2013-01-28 08:42:00,
2013-01-28 02:52:00,31.0,30.0,-100.00,ESE,122,2.0,9.0,96,0.00,,,0.00,0.000000,,2013-01-28 08:52:00,
2013-01-28 03:02:00,31.0,30.0,-100.00,ESE,122,2.0,9.0,96,0.00,,,0.00,0.000000,,2013-01-28 09:02:00,
2013-01-28 03:11:00,31.0,30.0,-100.00,ESE,122,2.0,9.0,96,0.00,,,0.00,0.000000,,2013-01-28 09:11:00,
2013-01-28 03:32:00,30.0,29.0,-100.00,ESE,105,3.0,6.0,97,0.00,,,0.00,0.000000,,2013-01-28 09:32:00,
2013-01-28 03:42:00,30.0,29.0,-100.00,ESE,105,3.0,6.0,97,0.00,,,0.00,0.000000,,2013-01-28 09:42:00,
2013-01-28 03:52:00,30.0,29.0,-100.00,ESE,105,3.0,6.0,97,0.00,,,0.00,0.000000,,2013-01-28 09:52:00,
2013-01-28 04:02:00,30.0,29.0,-100.00,ESE,105,3.0,6.0,97,0.00,,,0.00,0.000000,,2013-01-28 10:02:00,
2013-01-28 04:11:00,30.0,29.0,-100.00,ESE,105,3.0,6.0,97,0.00,,,0.00,0.000000,,2013-01-28 10:11:00,
2013-01-28 04:32:00,30.0,29.0,-100.00,East,89,3.0,6.0,97,0.00,,,0.00,0.000000,,2013-01-28 10:32:00,
2013-01-28 04:42:00,30.0,29.0,-100.00,East,89,3.0,6.0,97,0.00,,,0.00,0.000000,,2013-01-28 10:42:00,
2013-01-28 04:52:00,30.0,29.0,-100.00,East,89,3.0,6.0,97,0.00,,,0.00,0.000000,,2013-01-28 10:52:00,
2013-01-28 05:02:00,30.0,29.0,-100.00,East,89,3.0,6.0,97,0.00,,,0.00,0.000000,,2013-01-28 11:02:00,
2013-01-28 05:11:00,30.0,29.0,-100.00,East,89,3.0,6.0,97,0.00,,,0.00,0.000000,,2013-01-28 11:11:00,
2013-01-28 05:12:00,30.0,29.0,-100.00,ENE,75,3.0,6.0,97,0.00,,,0.00,0.000000,,2013-01-28 11:12:00,
2013-01-28 05:32:00,30.0,29.0,-100.00,ENE,75,3.0,6.0,97,0.00,,,0.00,0.000000,,2013-01-28 11:32:00,
2013-01-28 05:42:00,30.0,29.0,-100.00,ENE,75,3.0,6.0,97,0.00,,,0.00,0.000000,,2013-01-28 11:42:00,
2013-01-28 05:52:00,30.0,29.0,-100.00,ENE,75,3.0,6.0,97,0.00,,,0.00,0.000000,,2013-01-28 11:52:00,
2013-01-28 06:03:00,30.0,29.0,-100.00,ENE,75,3.0,6.0,97,0.00,,,0.00,0.000000,,2013-01-28 12:03:00,
2013-01-28 06:12:00,31.0,30.0,-100.00,ENE,59,2.0,6.0,97,0.00,,,0.00,0.000000,,2013-01-28 12:12:00,
2013-01-28 06:33:00,31.0,30.0,-100.00,ENE,59,2.0,6.0,97,0.00,,,0.00,0.000000,,2013-01-28 12:33:00,
2013-01-28 06:42:00,31.0,30.0,-100.00,ENE,59,2.0,6.0,97,0.00,,,0.00,0.000000,,2013-01-28 12:42:00,
2013-01-28 06:52:00,31.0,30.0,-100.00,ENE,59,2.0,6.0,97,0.00,,,0.00,0.000000,,2013-01-28 12:52:00,
2013-01-28 07:03:00,31.0,30.0,-100.00,ENE,59,2.0,6.0,97,0.00,,,0.00,0.000000,,2013-01-28 13:03:00,
2013-01-28 07:12:00,30.0,29.0,-100.00,NE,49,2.0,5.0,97,0.00,,,0.00,0.000000,,2013-01-28 13:12:00,
2013-01-28 07:33:00,30.0,29.0,-100.00,NE,49,2.0,5.0,97,0.00,,,0.00,0.000000,,2013-01-28 13:33:00,
2013-01-28 07:43:00,30.0,29.0,-100.00,NE,49,2.0,5.0,97,0.00,,,0.00,0.000000,,2013-01-28 13:43:00,
2013-01-28 07:53:00,30.0,29.0,-100.00,NE,49,2.0,5.0,97,0.00,,,0.00,0.000000,,2013-01-28 13:53:00,
2013-01-28 08:03:00,30.0,29.0,-100.00,NE,49,2.0,5.0,97,0.00,,,0.00,0.000000,,2013-01-28 14:03:00,
2013-01-28 08:12:00,30.0,29.0,-100.00,ENE,57,3.0,6.0,96,0.00,,,0.00,1.000000,,2013-01-28 14:12:00,
2013-01-28 08:43:00,30.0,29.0,-100.00,ENE,57,3.0,6.0,96,0.00,,,0.00,1.000000,,2013-01-28 14:43:00,
2013-01-28 08:53:00,30.0,29.0,-100.00,ENE,57,3.0,6.0,96,0.00,,,0.00,1.000000,,2013-01-28 14:53:00,
2013-01-28 09:03:00,30.0,29.0,-100.00,ENE,57,3.0,6.0,96,0.00,,,0.00,1.000000,,2013-01-28 15:03:00,
2013-01-28 09:12:00,30.0,29.0,-100.00,NNE,33,2.0,5.0,95,0.00,,,-99.99,5.000000,,2013-01-28 15:12:00,
2013-01-28 09:33:00,30.0,29.0,-100.00,NNE,33,2.0,5.0,95,0.00,,,-99.99,5.000000,,2013-01-28 15:33:00,
2013-01-28 09:43:00,30.0,29.0,-100.00,NNE,33,2.0,5.0,95,0.00,,,-99.99,5.000000,,2013-01-28 15:43:00,
2013-01-28 09:53:00,30.0,29.0,-100.00,NNE,33,2.0,5.0,95,0.00,,,-99.99,5.000000,,2013-01-28 15:53:00,
2013-01-28 10:04:00,30.0,29.0,-100.00,NNE,33,2.0,5.0,95,0.00,,,-99.99,5.000000,,2013-01-28 16:04:00,
2013-01-28 10:12:00,32.0,30.0,-100.00,NNW,340,2.0,4.0,93,0.00,,,0.00,10.000000,,2013-01-28 16:12:00,
2013-01-28 10:33:00,32.0,30.0,-100.00,NNW,340,2.0,4.0,93,0.00,,,0.00,10.000000,,2013-01-28 16:33:00,
2013-01-28 10:43:00,32.0,30.0,-100.00,NNW,340,2.0,4.0,93,0.00,,,0.00,10.000000,,2013-01-28 16:43:00,
2013-01-28 10:53:00,32.0,30.0,-100.00,NNW,340,2.0,4.0,93,0.00,,,0.00,10.000000,,2013-01-28 16:53:00,
2013-01-28 11:02:00,32.0,30.0,-100.00,NNW,340,2.0,4.0,93,0.00,,,0.00,10.000000,,2013-01-28 17:02:00,
2013-01-28 11:12:00,34.0,31.0,-100.00,North,353,5.0,8.0,90,0.00,,,0.00,28.000000,,2013-01-28 17:12:00,
2013-01-28 11:33:00,34.0,31.0,-100.00,North,353,5.0,8.0,90,0.00,,,0.00,28.000000,,2013-01-28 17:33:00,
2013-01-28 11:42:00,34.0,31.0,-100.00,North,353,5.0,8.0,90,0.00,,,0.00,28.000000,,2013-01-28 17:42:00,
2013-01-28 11:53:00,34.0,31.0,-100.00,North,353,5.0,8.0,90,0.00,,,0.00,28.000000,,2013-01-28 17:53:00,
2013-01-28 12:12:00,36.0,32.0,-100.00,NNE,33,3.0,7.0,86,0.00,,,0.00,63.000000,,2013-01-28 18:12:00,
2013-01-28 12:33:00,36.0,32.0,-100.00,NNE,33,3.0,7.0,86,0.00,,,0.00,63.000000,,2013-01-28 18:33:00,
2013-01-28 12:43:00,36.0,32.0,-100.00,NNE,33,3.0,7.0,86,0.00,,,0.00,63.000000,,2013-01-28 18:43:00,
2013-01-28 12:52:00,36.0,32.0,-100.00,NNE,33,3.0,7.0,86,0.00,,,0.00,63.000000,,2013-01-28 18:52:00,
2013-01-28 13:02:00,36.0,32.0,-100.00,NNE,33,3.0,7.0,86,0.00,,,0.00,63.000000,,2013-01-28 19:02:00,
2013-01-28 13:12:00,37.0,32.0,-100.00,NNW,338,1.0,6.0,83,0.00,,,0.00,141.000000,,2013-01-28 19:12:00,
2013-01-28 13:43:00,37.0,32.0,-100.00,NNW,338,1.0,6.0,83,0.00,,,0.00,141.000000,,2013-01-28 19:43:00,
2013-01-28 13:52:00,37.0,32.0,-100.00,NNW,338,1.0,6.0,83,0.00,,,0.00,141.000000,,2013-01-28 19:52:00,
2013-01-28 14:02:00,37.0,32.0,-100.00,NNW,338,1.0,6.0,83,0.00,,,0.00,141.000000,,2013-01-28 20:02:00,
2013-01-28 14:12:00,36.0,31.0,-100.00,NW,316,3.0,6.0,83,0.00,,,0.00,175.000000,,2013-01-28 20:12:00,
2013-01-28 14:33:00,36.0,31.0,-100.00,NW,316,3.0,6.0,83,0.00,,,0.00,175.000000,,2013-01-28 20:33:00,
2013-01-28 14:43:00,36.0,31.0,-100.00,NW,316,3.0,6.0,83,0.00,,,0.00,175.000000,,2013-01-28 20:43:00,
2013-01-28 14:53:00,36.0,31.0,-100.00,NW,316,3.0,6.0,83,0.00,,,0.00,175.000000,,2013-01-28 20:53:00,
2013-01-28 15:03:00,36.0,31.0,-100.00,NW,316,3.0,6.0,83,0.00,,,0.00,175.000000,,2013-01-28 21:03:00,
2013-01-28 15:33:00,35.0,32.0,-100.00,SSW,207,1.0,5.0,87,0.00,,,0.00,93.000000,,2013-01-28 21:33:00,
2013-01-28 15:43:00,35.0,32.0,-100.00,SSW,207,1.0,5.0,87,0.00,,,0.00,93.000000,,2013-01-28 21:43:00,
2013-01-28 15:53:00,35.0,32.0,-100.00,SSW,207,1.0,5.0,87,0.00,,,0.00,93.000000,,2013-01-28 21:53:00,
2013-01-28 16:02:00,35.0,32.0,-100.00,SSW,207,1.0,5.0,87,0.00,,,0.00,93.000000,,2013-01-28 22:02:00,
2013-01-28 16:11:00,35.0,32.0,-100.00,SSW,207,1.0,5.0,87,0.00,,,0.00,93.000000,,2013-01-28 22:11:00,
2013-01-28 16:12:00,33.0,31.0,-100.00,SE,137,0.0,6.0,93,0.00,,,-99.99,34.000000,,2013-01-28 22:12:00,
2013-01-28 16:33:00,33.0,31.0,-100.00,SE,137,0.0,6.0,93,0.00,,,-99.99,34.000000,,2013-01-28 22:33:00,
2013-01-28 16:42:00,33.0,31.0,-100.00,SE,137,0.0,6.0,93,0.00,,,-99.99,34.000000,,2013-01-28 22:42:00,
2013-01-28 16:52:00,33.0,31.0,-100.00,SE,137,0.0,6.0,93,0.00,,,-99.99,34.000000,,2013-01-28 22:52:00,
2013-01-28 17:02:00,33.0,31.0,-100.00,SE,137,0.0,6.0,93,0.00,,,-99.99,34.000000,,2013-01-28 23:02:00,
2013-01-28 17:12:00,32.0,31.0,-100.00,SSW,194,2.0,3.0,95,0.00,,,0.00,5.000000,,2013-01-28 23:12:00,
2013-01-28 17:33:00,32.0,31.0,-100.00,SSW,194,2.0,3.0,95,0.00,,,0.00,5.000000,,2013-01-28 23:33:00,
2013-01-28 17:42:00,32.0,31.0,-100.00,SSW,194,2.0,3.0,95,0.00,,,0.00,5.000000,,2013-01-28 23:42:00,
2013-01-28 17:53:00,32.0,31.0,-100.00,SSW,194,2.0,3.0,95,0.00,,,0.00,5.000000,,2013-01-28 23:53:00,
2013-01-28 18:02:00,32.0,31.0,-100.00,SSW,194,2.0,3.0,95,0.00,,,0.00,5.000000,,2013-01-29 00:02:00,
2013-01-28 18:12:00,32.0,31.0,-100.00,South,174,0.0,3.0,96,0.00,,,0.00,0.000000,,2013-01-29 00:12:00,
2013-01-28 18:33:00,32.0,31.0,-100.00,South,174,0.0,3.0,96,0.00,,,0.00,0.000000,,2013-01-29 00:33:00,
2013-01-28 18:42:00,32.0,31.0,-100.00,South,174,0.0,3.0,96,0.00,,,0.00,0.000000,,2013-01-29 00:42:00,
2013-01-28 18:52:00,32.0,31.0,-100.00,South,174,0.0,3.0,96,0.00,,,0.00,0.000000,,2013-01-29 00:52:00,
2013-01-28 19:02:00,32.0,31.0,-100.00,South,174,0.0,3.0,96,0.00,,,0.00,0.000000,,2013-01-29 01:02:00,
2013-01-28 19:12:00,32.0,31.0,-100.00,SSE,148,1.0,4.0,95,0.00,,,0.00,0.000000,,2013-01-29 01:12:00,
2013-01-28 19:32:00,32.0,31.0,-100.00,SSE,148,1.0,4.0,95,0.00,,,0.00,0.000000,,2013-01-29 01:32:00,
2013-01-28 19:42:00,32.0,31.0,-100.00,SSE,148,1.0,4.0,95,0.00,,,0.00,0.000000,,2013-01-29 01:42:00,
2013-01-28 19:52:00,32.0,31.0,-100.00,SSE,148,1.0,4.0,95,0.00,,,0.00,0.000000,,2013-01-29 01:52:00,
2013-01-28 20:02:00,32.0,31.0,-100.00,SSE,148,1.0,4.0,95,0.00,,,0.00,0.000000,,2013-01-29 02:02:00,
2013-01-28 20:42:00,32.0,30.0,-100.00,South,178,2.0,4.0,94,0.00,,,0.00,0.000000,,2013-01-29 02:42:00,
2013-01-28 20:53:00,32.0,30.0,-100.00,South,178,2.0,4.0,94,0.00,,,0.00,0.000000,,2013-01-29 02:53:00,
2013-01-28 21:03:00,32.0,30.0,-100.00,South,178,2.0,4.0,94,0.00,,,0.00,0.000000,,2013-01-29 03:03:00,
2013-01-28 21:11:00,32.0,30.0,-100.00,South,178,2.0,4.0,94,0.00,,,0.00,0.000000,,2013-01-29 03:11:00,
2013-01-28 21:32:00,32.0,30.0,-100.00,South,180,3.0,5.0,93,0.00,,,0.00,0.000000,,2013-01-29 03:32:00,
2013-01-28 21:42:00,32.0,30.0,-100.00,South,180,3.0,5.0,93,0.00,,,0.00,0.000000,,2013-01-29 03:42:00,
2013-01-28 21:53:00,32.0,30.0,-100.00,South,180,3.0,5.0,93,0.00,,,0.00,0.000000,,2013-01-29 03:53:00,
2013-01-28 22:02:00,32.0,30.0,-100.00,South,180,3.0,5.0,93,0.00,,,0.00,0.000000,,2013-01-29 04:02:00,
2013-01-28 22:11:00,32.0,30.0,-100.00,South,180,3.0,5.0,93,0.00,,,0.00,0.000000,,2013-01-29 04:11:00,
2013-01-28 22:12:00,32.0,30.0,-100.00,South,175,4.0,8.0,93,0.00,,,0.00,0.000000,,2013-01-29 04:12:00,
2013-01-28 22:32:00,32.0,30.0,-100.00,South,175,4.0,8.0,93,0.00,,,0.00,0.000000,,2013-01-29 04:32:00,
2013-01-28 22:42:00,32.0,30.0,-100.00,South,175,4.0,8.0,93,0.00,,,0.00,0.000000,,2013-01-29 04:42:00,
2013-01-28 22:52:00,32.0,30.0,-100.00,South,175,4.0,8.0,93,0.00,,,0.00,0.000000,,2013-01-29 04:52:00,
2013-01-28 23:03:00,32.0,30.0,-100.00,South,175,4.0,8.0,93,0.00,,,0.00,0.000000,,2013-01-29 05:03:00,
2013-01-28 23:32:00,31.0,29.0,-100.00,South,187,5.0,12.0,92,0.00,,,0.00,0.000000,,2013-01-29 05:32:00,
2013-01-28 23:43:00,31.0,29.0,-100.00,South,187,5.0,12.0,92,0.00,,,0.00,0.000000,,2013-01-29 05:43:00,
2013-01-28 23:52:00,31.0,29.0,-100.00,South,187,5.0,12.0,92,0.00,,,0.00,0.000000,,2013-01-29 05:52:00,